Elizabethton, TN

10:51 AM EDT on August 17, 2017 (GMT -0400)
Elizabethton

Weather History for K0A9 - February, 2013

Change the Weather History Date:

Tuesday, February 26, 2013

  Actual Average (KTRI) Record (KTRI)
Temperature  
Mean Temperature 45 °F -  
Max Temperature 51 °F 49 °F 80 °F (1977)
Min Temperature 39 °F 27 °F 4 °F (1967)
Degree Days  
Heating Degree Days 20    
Moisture  
Dew Point 36 °F    
Average Humidity 73    
Maximum Humidity 93    
Minimum Humidity 56    
Precipitation  
Precipitation 0.00 in - - ()
Sea Level Pressure  
Sea Level Pressure 29.66 in    
Wind  
Wind Speed 14 mph (East)    
Max Wind Speed 30 mph    
Max Gust Speed 40 mph    
Visibility 10 miles    
Events Rain    
Averages and records for this station are not official NWS values.
T = Trace of Precipitation, MM = Missing Value Source: NWS Daily Summary

Daily Weather History Graph

Daily Weather History Graph

Search for Another Location

Airport or City:

Trip Planner

Search our weather history database for the weather conditions in past years. The results will help you decide how hot, cold, wet, or windy it might be!

Date:

Astronomy

Feb. 26, 2013 Rise Set
Actual Time 7:02 AM EST 6:20 PM EST
Civil Twilight 6:36 AM EST 6:46 PM EST
Nautical Twilight 6:06 AM EST 7:16 PM EST
Astronomical Twilight 5:37 AM EST 7:46 PM EST
Moon 7:32 PM EST (2/26) 7:07 AM EST (2/26)
Length of Visible Light 12h 09m
Length of Day
11h 18m
Full, 99% of the Moon is Illuminated
Feb 26
Full
Mar 4
Last Quarter
Mar 11
New
Mar 19
First Quarter
Mar 27
Full

Hourly Weather History & Observations

Time (EST) Temp. Windchill Dew Point Humidity Pressure Visibility Wind Dir Wind Speed Gust Speed Precip Events Conditions
12:55 AM 39.2 °F 30.8 °F 24.8 °F 56% 29.90 in 10.0 mi East 15.0 mph - N/A   Clear
1:15 AM 39.2 °F 31.2 °F 26.6 °F 61% 29.90 in 10.0 mi East 13.8 mph - N/A   Clear
1:35 AM 39.2 °F 31.2 °F 28.4 °F 65% 29.89 in 10.0 mi East 13.8 mph - N/A   Scattered Clouds
1:55 AM 41.0 °F 33.9 °F 28.4 °F 61% 29.89 in 10.0 mi East 12.7 mph - N/A   Overcast
2:15 AM 41.0 °F 33.9 °F 28.4 °F 61% 29.87 in 10.0 mi East 12.7 mph - N/A   Mostly Cloudy
2:35 AM 41.0 °F 33.5 °F 30.2 °F 65% 29.87 in 10.0 mi East 13.8 mph - N/A   Mostly Cloudy
2:55 AM 39.2 °F 29.6 °F 30.2 °F 70% 29.85 in 10.0 mi ENE 19.6 mph - N/A   Mostly Cloudy
3:15 AM 39.2 °F 28.5 °F 30.2 °F 70% 29.86 in 10.0 mi East 24.2 mph - N/A   Mostly Cloudy
3:35 AM 39.2 °F 31.6 °F 30.2 °F 70% 29.85 in 10.0 mi ESE 12.7 mph - N/A   Mostly Cloudy
3:55 AM 41.0 °F 33.9 °F 30.2 °F 65% 29.83 in 10.0 mi East 12.7 mph - N/A   Overcast
4:15 AM 41.0 °F 32.8 °F 30.2 °F 65% 29.83 in 10.0 mi ESE 16.1 mph 27.6 mph N/A   Overcast
4:35 AM 39.2 °F 30.5 °F 30.2 °F 70% 29.84 in 10.0 mi East 16.1 mph - N/A   Overcast
4:55 AM 39.2 °F 30.2 °F 32.0 °F 75% 29.83 in 10.0 mi ENE 17.3 mph - N/A Rain Light Rain
5:15 AM 39.2 °F 31.2 °F 33.8 °F 81% 29.83 in 10.0 mi ENE 13.8 mph - N/A Rain Light Rain
5:35 AM 39.2 °F 32.5 °F 33.8 °F 81% 29.81 in 10.0 mi East 10.4 mph - N/A Rain Light Rain
5:55 AM 41.0 °F 31.9 °F 33.8 °F 76% 29.81 in 10.0 mi East 19.6 mph - N/A Rain Light Rain
6:15 AM 41.0 °F 34.3 °F 33.8 °F 76% 29.79 in 10.0 mi East 11.5 mph - N/A Rain Light Rain
6:35 AM 41.0 °F 33.1 °F 35.6 °F 81% 29.76 in 10.0 mi East 15.0 mph - N/A Rain Light Rain
6:55 AM 41.0 °F 32.8 °F 35.6 °F 81% 29.77 in 10.0 mi East 16.1 mph - N/A Rain Light Rain
7:15 AM 42.8 °F 34.8 °F 35.6 °F 76% 29.75 in 10.0 mi East 17.3 mph - N/A   Light Drizzle
7:35 AM 42.8 °F 37.5 °F 37.4 °F 81% 29.72 in 10.0 mi East 9.2 mph - N/A Rain Light Rain
7:55 AM 42.8 °F 35.4 °F 37.4 °F 81% 29.73 in 10.0 mi East 15.0 mph - N/A Rain Light Rain
8:15 AM 44.6 °F 37.4 °F 35.6 °F 71% 29.73 in 10.0 mi East 16.1 mph - N/A   Overcast
8:35 AM 44.6 °F 38.8 °F 37.4 °F 76% 29.71 in 10.0 mi ENE 11.5 mph 31.1 mph N/A   Overcast
8:55 AM 44.6 °F 36.1 °F 35.6 °F 71% 29.70 in 10.0 mi East 21.9 mph - N/A   Scattered Clouds
9:35 AM 44.6 °F 35.3 °F 37.4 °F 76% 29.67 in 10.0 mi East 26.5 mph 39.1 mph N/A   Light Drizzle
9:55 AM 44.6 °F 35.5 °F 37.4 °F 76% 29.67 in 10.0 mi East 25.3 mph - N/A Rain Light Rain
10:15 AM 44.6 °F 36.9 °F 37.4 °F 76% 29.65 in 7.0 mi East 18.4 mph - N/A Rain Light Rain
10:35 AM 44.6 °F 37.4 °F 37.4 °F 76% 29.65 in 10.0 mi East 16.1 mph 33.4 mph N/A Rain Light Rain
10:55 AM 46.4 °F 37.5 °F 37.4 °F 71% 29.64 in 10.0 mi East 27.6 mph - N/A   Mostly Cloudy
11:15 AM 48.2 °F - 39.2 °F 71% 29.61 in 10.0 mi East 23.0 mph 34.5 mph N/A   Scattered Clouds
11:35 AM 48.2 °F - 37.4 °F 66% 29.61 in 10.0 mi East 29.9 mph 40.3 mph N/A   Partly Cloudy
11:55 AM 48.2 °F - 37.4 °F 66% 29.62 in 10.0 mi East 18.4 mph - N/A   Partly Cloudy
12:15 PM 46.4 °F 38.5 °F 35.6 °F 66% 29.62 in 10.0 mi East 21.9 mph - N/A   Mostly Cloudy
12:35 PM 46.4 °F 39.5 °F 37.4 °F 71% 29.60 in 10.0 mi East 17.3 mph - N/A Rain Light Rain
12:55 PM 46.4 °F 38.1 °F 35.6 °F 66% 29.60 in 10.0 mi East 24.2 mph - N/A   Overcast
1:15 PM 46.4 °F 38.5 °F 37.4 °F 71% 29.59 in 10.0 mi East 21.9 mph 35.7 mph N/A   Light Drizzle
1:35 PM 44.6 °F 37.2 °F 37.4 °F 76% 29.57 in 6.0 mi East 17.3 mph - N/A Rain Light Rain
1:55 PM 46.4 °F 39.5 °F 39.2 °F 76% 29.54 in 9.0 mi East 17.3 mph - N/A Rain Light Rain
2:15 PM 44.6 °F 37.8 °F 35.6 °F 71% 29.54 in 10.0 mi NE 15.0 mph - N/A   Mostly Cloudy
2:35 PM 44.6 °F 37.4 °F 35.6 °F 71% 29.52 in 10.0 mi ENE 16.1 mph - N/A   Overcast
2:55 PM 46.4 °F 40.1 °F 37.4 °F 71% 29.51 in 10.0 mi NE 15.0 mph - N/A   Mostly Cloudy
3:15 PM 46.4 °F 40.4 °F 37.4 °F 71% 29.51 in 10.0 mi ENE 13.8 mph - N/A   Overcast
3:35 PM 48.2 °F - 37.4 °F 66% 29.50 in 10.0 mi ENE 9.2 mph - N/A   Overcast
3:55 PM 48.2 °F - 39.2 °F 71% 29.50 in 10.0 mi Variable 5.8 mph - N/A   Overcast
4:15 PM 50.0 °F - 39.2 °F 66% 29.50 in 10.0 mi East 9.2 mph - N/A   Overcast
4:35 PM 50.0 °F - 39.2 °F 66% 29.49 in 10.0 mi Calm Calm - N/A   Mostly Cloudy
4:55 PM 51.8 °F - 39.2 °F 62% 29.49 in 10.0 mi East 9.2 mph - N/A   Mostly Cloudy
5:15 PM 51.8 °F - 41.0 °F 67% 29.49 in 10.0 mi Calm Calm - N/A   Partly Cloudy
5:35 PM 51.8 °F - 41.0 °F 67% 29.49 in 10.0 mi East 3.5 mph - N/A   Clear
5:55 PM 51.8 °F - 39.2 °F 62% 29.50 in 10.0 mi East 4.6 mph - N/A   Clear
6:15 PM 48.2 °F - 39.2 °F 71% 29.51 in 10.0 mi NE 3.5 mph - N/A   Partly Cloudy
6:35 PM 50.0 °F - 39.2 °F 66% 29.53 in 10.0 mi Calm Calm - N/A   Mostly Cloudy
6:55 PM 48.2 °F - 39.2 °F 71% 29.54 in 10.0 mi Variable 4.6 mph - N/A   Overcast
7:15 PM 50.0 °F - 39.2 °F 66% 29.56 in 10.0 mi WSW 6.9 mph - N/A   Light Drizzle
7:35 PM 46.4 °F 40.4 °F 42.8 °F 87% 29.58 in 5.0 mi West 13.8 mph - N/A Rain Rain
7:55 PM 44.6 °F 39.7 °F 41.0 °F 87% 29.59 in 10.0 mi West 9.2 mph - N/A   Light Drizzle
8:15 PM 44.6 °F 39.7 °F 39.2 °F 81% 29.60 in 10.0 mi WSW 9.2 mph - N/A   Overcast
8:35 PM 44.6 °F 40.2 °F 39.2 °F 81% 29.60 in 10.0 mi WSW 8.1 mph - N/A   Overcast
8:55 PM 44.6 °F 38.1 °F 37.4 °F 76% 29.61 in 10.0 mi WSW 13.8 mph - N/A   Overcast
9:15 PM 44.6 °F 40.7 °F 35.6 °F 71% 29.62 in 10.0 mi Variable 6.9 mph - N/A   Overcast
9:35 PM 42.8 °F 38.6 °F 35.6 °F 76% 29.63 in 10.0 mi West 6.9 mph - N/A   Light Drizzle
9:55 PM 42.8 °F 38.0 °F 35.6 °F 76% 29.64 in 9.0 mi West 8.1 mph - N/A Rain Light Rain
10:15 PM 42.8 °F 38.6 °F 35.6 °F 76% 29.65 in 9.0 mi WSW 6.9 mph - N/A Rain Light Rain
10:35 PM 41.0 °F 38.0 °F 37.4 °F 87% 29.64 in 10.0 mi WSW 4.6 mph - N/A Rain Light Rain
10:55 PM 41.0 °F 36.4 °F 37.4 °F 87% 29.64 in 10.0 mi West 6.9 mph - N/A   Overcast
11:15 PM 41.0 °F 35.2 °F 37.4 °F 87% 29.64 in 10.0 mi WSW 9.2 mph - N/A   Light Drizzle
11:35 PM 39.2 °F 35.9 °F 37.4 °F 93% 29.65 in 5.0 mi West 4.6 mph - N/A Rain Rain
11:55 PM 39.2 °F 35.9 °F 37.4 °F 93% 29.65 in 10.0 mi WSW 4.6 mph - N/A Rain Light Rain